TimeEST,TemperatureF,Dew PointF,Humidity,Sea Level PressureIn,VisibilityMPH,Wind Direction,Wind SpeedMPH,Gust SpeedMPH,PrecipitationIn,Events,Conditions,WindDirDegrees,DateUTC
12:15 AM,23.0,16.7,77,30.04,10.0,NW,16.1,19.6,N/A,,Overcast,320,2012-11-24 05:15:00
12:36 AM,23.0,16.3,76,30.04,10.0,NW,15.0,23.0,N/A,Snow,Light Snow,320,2012-11-24 05:36:00
12:56 AM,23.0,16.5,76,30.04,10.0,NW,16.1,-,N/A,,Overcast,320,2012-11-24 05:56:00
1:15 AM,22.8,16.5,77,30.04,10.0,NW,15.0,21.9,N/A,Snow,Light Snow,320,2012-11-24 06:15:00
1:36 AM,22.1,16.0,77,30.04,10.0,NW,16.1,19.6,N/A,,Mostly Cloudy,310,2012-11-24 06:36:00
1:56 AM,21.7,15.3,76,30.05,10.0,NW,13.8,21.9,N/A,,Scattered Clouds,320,2012-11-24 06:56:00
2:16 AM,21.2,15.8,80,30.05,10.0,NW,13.8,19.6,N/A,Snow,Light Snow,310,2012-11-24 07:16:00
2:36 AM,21.7,15.3,76,30.06,10.0,NW,13.8,23.0,N/A,Snow,Light Snow,320,2012-11-24 07:36:00
2:55 AM,21.2,15.8,80,30.06,7.0,NW,15.0,20.7,N/A,Snow,Light Snow,320,2012-11-24 07:55:00
3:16 AM,21.9,15.6,77,30.07,10.0,NW,11.5,19.6,N/A,Snow,Light Snow,310,2012-11-24 08:16:00
3:36 AM,21.2,15.8,80,30.07,10.0,NW,13.8,18.4,N/A,Snow,Light Snow,310,2012-11-24 08:36:00
3:55 AM,21.7,15.1,76,30.07,10.0,NW,13.8,-,N/A,Snow,Light Snow,320,2012-11-24 08:55:00
4:16 AM,22.1,15.6,76,30.07,10.0,NW,15.0,19.6,N/A,Snow,Light Snow,310,2012-11-24 09:16:00
4:36 AM,21.9,15.8,77,30.07,10.0,NW,15.0,18.4,N/A,Snow,Light Snow,320,2012-11-24 09:36:00
4:55 AM,22.1,15.8,77,30.07,10.0,NW,15.0,20.7,N/A,Snow,Light Snow,320,2012-11-24 09:55:00
5:16 AM,21.7,15.4,77,30.07,10.0,NW,12.7,18.4,N/A,Snow,Light Snow,320,2012-11-24 10:16:00
5:36 AM,21.7,15.4,77,30.07,10.0,NW,13.8,20.7,N/A,,Mostly Cloudy,320,2012-11-24 10:36:00
5:55 AM,21.6,15.4,77,30.07,10.0,NW,12.7,-,N/A,Snow,Light Snow,320,2012-11-24 10:55:00
6:50 AM,21.2,15.8,80,30.09,10.0,NW,13.8,-,N/A,Snow,Light Snow,320,2012-11-24 11:50:00
7:50 AM,21.2,15.8,80,30.10,10.0,NW,11.5,-,N/A,,Overcast,310,2012-11-24 12:50:00
8:50 AM,23.0,15.8,74,30.10,10.0,NW,10.4,-,N/A,Snow,Light Snow,310,2012-11-24 13:50:00
9:50 AM,23.0,15.8,74,30.09,10.0,NW,10.4,-,N/A,,Overcast,310,2012-11-24 14:50:00
10:50 AM,23.0,15.8,74,30.10,10.0,WNW,12.7,-,N/A,,Overcast,300,2012-11-24 15:50:00
11:50 AM,23.0,15.8,74,30.09,10.0,WNW,12.7,-,N/A,,Overcast,300,2012-11-24 16:50:00
12:50 PM,23.0,15.8,74,30.08,10.0,WNW,10.4,-,N/A,,Overcast,300,2012-11-24 17:50:00
1:50 PM,23.0,15.8,74,30.08,10.0,WNW,10.4,-,N/A,,Overcast,300,2012-11-24 18:50:00
2:50 PM,23.0,15.8,74,30.08,10.0,WNW,10.4,-,N/A,,Overcast,300,2012-11-24 19:50:00
3:50 PM,23.0,14.0,68,30.03,10.0,NW,3.5,-,N/A,,Overcast,310,2012-11-24 20:50:00
5:50 PM,23.0,12.2,63,30.00,10.0,Calm,Calm,-,N/A,,Overcast,0,2012-11-24 22:50:00
6:50 PM,19.4,14.0,80,29.97,10.0,Calm,Calm,-,N/A,,Scattered Clouds,0,2012-11-24 23:50:00
7:50 PM,19.4,14.0,80,29.94,10.0,South,3.5,-,N/A,,Clear,180,2012-11-25 00:50:00
9:55 PM,19.4,14.0,80,29.90,10.0,SSE,5.8,-,N/A,,Overcast,160,2012-11-25 02:55:00
10:16 PM,21.7,14.0,72,29.88,10.0,SSW,4.6,-,N/A,,Overcast,200,2012-11-25 03:16:00
10:35 PM,21.2,14.4,75,29.88,10.0,SSW,6.9,-,N/A,,Overcast,210,2012-11-25 03:35:00
10:56 PM,21.7,14.2,73,29.87,7.0,SSW,8.1,-,N/A,Snow,Light Snow,200,2012-11-25 03:56:00
11:15 PM,21.2,16.0,80,29.87,4.0,South,6.9,-,N/A,Snow,Light Snow,190,2012-11-25 04:15:00
11:36 PM,21.6,16.0,79,29.85,10.0,South,5.8,-,N/A,,Overcast,170,2012-11-25 04:36:00
11:56 PM,22.1,15.3,75,29.85,10.0,South,9.2,-,N/A,,Overcast,190,2012-11-25 04:56:00